パンスターズ彗星

P/2021 R3 ( PanSTARRS )

English version
Home page
Updated on September 13, 2021

---------------------------------------------------------------------

・ プロフィール

発見日 2021年9月5日
発見光度 21.4等
発見者 Pan-STARRS 1 telescope (Haleakala)

・ 軌道要素

Epoch 2021 May 26.0 TT = JDT 2459360.5                                          
T 2021 May 27.33684 TT                                  Rudenko                 
q   2.5255661            (2000.0)            P               Q                  
n   0.13412967     Peri.    3.06429     +0.60360647     +0.74581168             
a   3.7796607      Node   304.25486     -0.73855135     +0.38989027             
e   0.3318008      Incl.   19.93575     -0.30033504     +0.54013935             
P   7.35                                                                        
From 60 observations 2021 July 9-Sept. 10, mean residual 0".4.                  

・ 光度変化

        m1 = 15.5 + 5 logΔ + 10.0 log r

---------------------------------------------------------------------

軌道要素はM.P.E.C. 2021-R255に掲載されたものです。
光度グラフはComet for Windowsで作成したものです。

---------------------------------------------------------------------

Copyright(C) Seiichi Yoshida (comet@aerith.net). All rights reserved.